Temperature
17 17 17 17 17 17 17 17 17 17 17 17 17 17 17 17 17 17 17 17 17 17 17 17 17 17 17 17 17 17 17 17 17 16 16 16 16 16 16 16 16 16 16
17 17 17 17 17 17 17 17 17 17 17 17 17 17 17 17 17 17 17 17 17 17 17 17 17 17 17 17 17 17 17 17 17 16 16 16 16 16 16 16 16 16 16
17 17 17 17 17 17 17 17 17 17 17 17 17 17 17 17 17 17 17 17 17 17 17 17 17 17 17 17 17 17 17 17 17 16 16 16 16 16 16 16 16 16 16
18 18 17 18 17 17 17 17 17 17 17 17 17 17 17 17 17 17 17 17 17 17 17 17 17 17 17 17 17 17 17 17 16 16 16 16 16 16 16 16 16 16 16
18 18 18 18 17 17 17 18 17 17 17 17 17 17 17 17 17 17 17 17 17 17 17 17 17 17 17 17 17 17 17 17 16 16 16 16 16 16 16 16 16 16 16
18 18 17 17 18 17 17 17 17 17 17 17 17 17 17 17 17 17 17 17 17 17 17 17 17 17 17 17 17 17 16 16 16 16 16 16 16 16 16 16 16 16 16
18 18 18 18 17 18 18 17 17 17 17 17 17 17 17 17 17 17 17 17 17 17 17 16 16 16 16 17 16 16 16 16 16 16 16 16 16 16 16 16 16 16 16
18 18 18 17 18 17 17 17 17 17 17 17 17 18 18 18 17 17 17 17 17 17 16 16 16 16 16 16 16 16 16 16 16 16 16 16 16 16 16 16 16 16 15
18 18 17 18 17 17 17 17 17 17 17 17 17 17 18 18 18 18 17 17 17 17 17 16 16 16 16 16 16 16 16 16 16 16 16 16 16 16 16 16 15 15 15
18 18 18 17 18 17 17 17 17 17 17 17 17 17 17 17 18 18 17 17 17 16 16 16 16 16 16 16 16 16 16 16 16 16 16 16 16 15 15 15 15 15 15
18 17 18 18 18 17 17 17 17 17 17 17 17 17 17 17 17 18 18 17 17 17 16 16 16 16 16 16 16 16 16 16 16 16 16 16 15 15 15 15 15 15 15
18 18 17 18 17 17 17 17 17 17 17 17 17 17 17 17 18 18 18 17 17 17 16 16 16 16 16 16 16 16 16 16 16 15 15 15 15 15 15 15 15 15 15
18 17 17 18 17 17 17 17 17 17 17 17 17 17 17 17 17 17 17 17 17 17 16 16 16 16 16 15 15 16 16 15 15 15 15 15 15 15 15 15 15 15 15
18 18 17 17 17 17 17 17 17 17 17 17 16 16 16 17 17 17 17 17 17 17 17 16 16 16 15 15 15 15 15 15 15 15 15 15 15 15 15 15 15 14 14
18 17 17 17 17 17 17 17 17 17 17 16 16 16 16 16 16 16 16 16 16 17 17 16 16 15 15 15 15 15 15 15 15 15 15 15 15 15 14 14 14 14 14
18 17 17 17 17 17 17 17 16 16 16 16 16 16 16 16 16 16 16 16 16 16 16 16 15 15 15 15 15 14 14 15 15 15 15 15 14 14 14 14 14 14 14
17 17 17 17 17 17 16 17 16 16 16 16 16 16 16 16 16 16 16 16 16 16 16 16 15 15 15 14 14 14 14 14 14 14 14 14 14 14 14 14 14 14 14
17 17 17 17 17 16 16 16 16 16 16 15 15 15 15 15 15 15 15 15 15 15 15 15 15 15 14 14 14 14 14 14 14 14 14 14 14 14 13 13 13 13 13
17 17 17 17 16 16 16 16 16 16 15 15 15 15 15 15 15 15 15 15 15 15 15 15 15 14 14 14 14 14 13 14 13 13 13 13 13 13 13 13 13 13 13
17 17 17 16 16 16 16 16 16 15 15 15 15 15 15 15 15 15 15 15 15 15 14 14 14 14 14 14 13 13 13 13 13 13 13 13 13 13 13 13 13 12 12
17 16 16 16 16 16 16 16 15 15 15 15 15 15 14 15 15 15 14 14 14 14 14 14 14 14 14 13 13 13 13 13 13 13 13 12 12 12 12 12 12 12 12
16 16 16 16 16 16 16 16 16 15 15 15 15 14 15 14 15 15 15 14 14 14 14 14 14 14 13 13 13 13 13 13 13 13 13 12 12 12 12 12 12 12 12
16 16 16 16 15 16 16 16 15 15 15 15 14 14 14 14 14 14 14 14 14 14 14 13 13 13 13 13 13 13 13 13 13 12 12 12 12 12 12 12 12 12 12
16 16 16 16 15 15 16 16 15 15 15 14 14 14 14 14 14 14 14 14 13 13 13 13 13 13 13 13 12 12 12 12 12 12 12 12 12 12 12 12 12 12 11
16 16 16 16 15 16 16 16 15 15 14 14 14 14 14 14 14 14 13 13 13 13 13 13 13 13 13 13 12 12 12 12 12 12 12 12 12 12 12 11 11 11 11
16 16 16 15 15 15 15 15 15 15 14 14 14 14 14 14 13 14 13 13 13 13 13 12 13 13 12 12 12 12 12 12 12 12 12 12 12 12 12 11 11 11 11
Wind_Speed
2 3 3 2 2 4 4 3 3 3 2 3 3 3 3 3 3 3 5 9 9 9 8 8 9 9 9 9 10 10 10 10 9 10 10 11 12 11 11 10 10 10 10
2 2 3 2 2 3 3 2 3 2 2 1 2 1 2 3 3 4 4 7 10 9 8 8 8 9 9 9 10 10 10 10 10 11 11 12 12 12 12 12 11 11 10
2 2 2 2 2 3 3 3 2 2 2 2 2 1 1 1 2 3 4 4 6 9 9 9 9 9 9 9 9 9 10 10 11 12 13 13 13 13 13 13 12 11 11
2 2 2 2 3 3 3 2 2 2 1 1 1 1 1 2 2 2 3 3 3 4 7 8 7 7 8 9 9 9 9 10 11 11 12 13 13 13 13 13 12 12 11
2 2 2 2 3 2 2 2 2 1 1 1 1 1 1 2 2 2 2 2 2 3 3 5 6 6 7 8 7 7 8 9 10 11 11 12 12 13 13 13 13 13 13
2 2 2 2 2 2 2 1 1 1 1 1 0 1 1 1 2 2 2 2 2 2 2 2 4 5 6 6 6 7 7 7 8 9 10 10 11 12 13 13 13 13 13
2 1 1 2 1 2 1 2 2 2 2 1 1 1 2 2 2 2 1 1 2 2 2 1 1 1 4 6 5 4 4 4 6 7 8 9 10 11 12 13 13 12 13
1 1 1 2 2 1 2 1 1 1 1 1 1 2 1 3 2 2 2 2 1 2 2 2 2 2 2 2 4 4 2 2 4 6 7 8 9 10 11 12 11 11 11
1 0 1 1 1 2 1 2 2 2 2 1 2 2 2 1 0 2 3 3 2 1 2 2 3 2 2 1 1 3 2 2 3 4 5 7 8 9 10 11 11 10 9
2 2 1 1 1 1 1 2 1 2 3 2 2 2 3 3 2 1 2 3 3 3 2 2 2 2 2 2 1 2 2 1 2 3 4 5 6 7 8 9 10 10 10
2 2 2 2 1 1 1 1 1 2 2 2 2 2 3 3 4 3 2 2 2 2 2 2 2 1 2 2 1 1 3 2 2 2 2 3 4 6 7 8 9 9 10
3 3 2 2 2 1 1 1 1 2 2 2 3 3 3 3 3 3 3 3 2 2 2 1 2 1 2 2 1 3 3 3 3 2 2 2 3 4 5 6 7 8 9
3 3 2 2 1 1 1 1 2 1 2 2 3 3 3 3 2 3 3 3 3 3 2 2 2 2 2 2 1 3 3 3 2 2 1 1 2 2 3 3 4 6 7
2 2 3 2 2 2 2 1 1 1 1 2 3 2 3 2 3 3 3 3 4 4 3 3 2 2 2 2 2 3 2 3 3 2 1 1 1 0 1 2 2 2 3
2 3 3 3 2 2 1 2 1 1 1 2 2 2 2 2 2 3 3 4 4 5 3 3 3 2 2 1 1 2 1 4 4 3 2 2 1 1 1 2 2 2 2
2 3 3 3 2 2 2 2 1 1 1 1 1 1 2 2 2 3 3 3 4 5 4 2 2 1 1 2 2 2 2 5 4 4 3 2 2 2 2 3 3 3 3
4 4 4 3 3 2 2 1 1 1 2 2 2 2 2 3 3 3 3 3 3 3 4 3 2 1 2 2 1 2 2 2 3 5 4 3 3 3 3 3 3 3 3
5 4 4 3 3 2 2 2 2 2 2 2 2 2 2 2 2 3 3 3 3 4 4 4 2 2 2 2 2 2 2 1 1 5 5 4 4 4 4 4 4 4 4
5 4 4 3 3 3 3 3 3 3 3 3 3 3 3 3 3 2 3 4 4 4 4 4 3 2 2 2 2 2 2 1 1 4 6 5 5 5 5 5 5 5 5
5 4 4 4 3 3 3 3 3 3 3 3 3 3 3 3 3 3 3 3 3 3 3 4 4 3 3 3 3 3 3 2 2 2 3 4 6 6 6 6 6 6 6
4 4 4 4 4 4 3 2 3 3 3 4 4 3 3 2 2 3 3 2 3 3 4 4 4 4 3 3 4 3 3 3 3 3 2 3 4 3 5 7 7 7 7
4 4 4 4 4 2 2 0 3 3 3 4 4 4 4 3 3 3 2 3 3 4 4 4 5 5 4 4 3 3 3 3 3 3 3 2 2 2 2 4 7 8 8
5 4 4 4 4 2 3 2 3 4 4 4 4 4 4 3 4 4 4 5 5 4 4 5 6 5 5 5 5 5 4 5 3 2 3 3 3 3 3 4 10 10 9
5 5 4 4 4 3 4 4 5 6 5 5 5 5 5 4 4 4 5 5 5 5 5 6 5 6 4 3 5 6 5 5 5 5 5 4 4 4 3 4 11 11 11
5 5 5 5 5 4 5 5 6 5 5 6 6 6 6 6 3 3 5 6 5 5 5 4 4 4 3 4 5 5 6 6 5 5 5 5 4 4 4 4 8 13 13
5 5 5 5 6 5 6 6 6 5 5 5 5 5 6 5 4 5 6 6 6 6 5 4 5 6 7 7 9 8 7 7 6 5 5 5 5 5 4 4 5 8 10
Wind_Direction
122 120 120 124 133 134 146 150 146 138 153 160 172 182 196 207 196 189 161 168 182 191 198 203 205 207 209 209 211 214 216 214 215 209 207 208 210 209 210 211 209 208 211
122 139 142 141 137 145 140 152 152 156 170 164 174 185 221 206 188 196 192 178 178 188 200 210 215 216 214 215 216 218 221 221 217 215 214 212 212 211 212 214 214 211 212
133 159 142 156 138 136 146 166 153 166 176 182 182 175 174 182 176 194 193 190 183 186 197 210 218 223 220 219 219 220 224 228 225 221 218 214 214 212 212 213 214 212 214
159 185 159 141 146 158 157 158 171 174 159 181 175 169 150 158 163 188 194 187 198 198 192 197 210 219 223 223 224 227 230 236 231 225 219 214 213 213 212 213 214 213 216
163 179 150 130 168 158 159 176 143 162 151 174 165 162 169 163 167 173 179 188 188 202 206 168 183 204 221 227 227 227 234 239 231 221 216 216 214 213 211 214 217 219 220
151 170 155 153 175 150 154 130 131 143 202 217 187 99 132 156 159 162 185 160 167 194 199 187 192 196 203 222 230 230 234 235 221 218 219 218 217 215 213 216 220 221 221
129 178 139 141 185 157 165 172 175 183 203 188 207 189 174 172 149 159 161 159 152 165 161 169 210 225 187 188 203 226 238 231 220 218 220 219 220 219 219 221 222 223 224
148 152 136 179 173 168 181 182 193 242 210 194 275 260 215 172 178 166 162 167 168 169 183 180 178 219 249 182 148 172 204 224 221 221 223 223 222 221 222 223 223 226 229
168 148 176 201 174 211 174 195 210 233 259 244 267 286 296 298 187 167 179 174 184 207 218 190 180 182 202 214 177 155 181 224 240 238 232 224 222 222 223 222 222 224 226
164 162 167 177 199 198 164 218 194 245 252 257 233 252 278 311 285 217 195 184 190 200 222 233 192 178 195 211 172 81 138 198 241 248 246 232 220 216 221 220 222 221 222
173 176 174 174 185 200 176 248 234 265 260 268 263 249 249 242 250 261 251 218 206 204 209 230 238 228 215 219 212 140 154 189 229 246 248 246 233 226 226 223 226 226 223
179 178 184 184 192 185 188 229 234 219 273 272 273 266 263 264 260 258 259 248 249 227 198 221 240 235 228 222 189 127 154 184 212 227 240 253 248 242 232 229 230 229 225
180 173 185 182 189 190 214 235 220 247 252 256 257 264 273 273 282 276 268 265 271 257 225 225 237 244 237 225 171 144 151 179 192 210 224 244 250 247 234 234 235 230 223
196 169 178 185 197 217 227 214 243 236 243 253 256 269 271 268 270 267 271 269 268 257 235 240 235 233 252 232 140 172 182 168 182 181 175 163 161 203 226 221 219 216 218
196 180 186 189 199 211 234 242 248 267 266 261 252 234 267 281 271 271 268 264 270 274 266 236 235 216 225 225 165 206 195 136 159 168 170 172 180 184 174 174 173 179 185
192 188 189 191 198 201 212 241 224 215 258 269 285 300 287 285 284 270 276 275 267 272 277 269 247 245 235 221 165 199 178 137 147 152 154 168 173 172 164 167 167 166 167
186 191 195 197 198 199 202 210 244 233 252 271 271 264 273 294 291 285 278 273 267 259 258 271 252 215 217 245 188 209 200 194 143 146 158 172 176 172 171 169 163 160 159
193 190 197 201 208 205 207 217 242 244 251 261 267 275 277 275 282 286 286 276 268 260 251 257 246 219 211 212 196 221 218 197 143 139 155 172 178 177 175 173 172 168 160
194 194 196 207 219 220 219 225 237 247 251 253 254 254 264 273 274 288 286 276 263 249 241 239 237 219 216 204 202 209 205 225 207 154 160 166 169 174 176 177 176 176 170
194 197 201 207 214 223 227 235 243 249 254 254 253 255 260 264 263 271 267 270 271 259 240 234 232 220 215 202 212 216 204 198 238 204 159 165 163 168 172 175 173 171 168
196 196 201 201 206 212 219 237 247 246 250 255 254 254 258 269 304 289 286 283 270 261 246 236 233 232 223 210 218 222 223 210 209 228 206 194 180 182 170 173 172 165 164
196 197 201 205 209 207 106 8 272 250 248 250 254 251 240 219 212 225 281 310 303 268 267 261 247 240 234 230 226 230 227 229 230 206 223 225 206 200 180 163 152 162 170
197 200 206 208 206 176 140 184 262 258 251 253 254 253 252 232 217 225 215 222 242 256 265 266 267 262 244 227 228 232 235 248 253 220 215 235 218 216 202 154 152 168 176
204 205 206 205 205 187 174 205 240 242 250 250 249 249 251 253 241 242 240 238 240 234 234 245 258 265 265 249 231 238 234 233 237 223 214 240 224 220 208 177 163 174 180
202 206 206 209 211 203 193 209 240 244 241 246 247 245 245 244 222 241 242 241 246 246 231 231 255 262 272 254 243 236 229 228 233 222 209 234 232 222 219 204 180 180 185
209 214 211 217 220 223 198 203 231 248 247 248 242 237 231 237 214 218 237 242 244 248 252 240 227 228 231 225 222 231 236 237 239 238 210 220 224 219 228 217 200 188 192
Height
1544 1544 1544 1545 1546 1547 1548 1548 1549 1549 1549 1550 1551 1551 1551 1551 1553 1554 1555 1556 1557 1558 1559 1559 1560 1561 1561 1562 1563 1563 1564 1564 1564 1565 1566 1567 1568 1569 1570 1570 1571 1572 1573
1543 1544 1545 1545 1546 1547 1548 1548 1549 1549 1550 1550 1550 1550 1549 1549 1550 1552 1554 1555 1556 1557 1557 1558 1559 1560 1560 1560 1561 1562 1562 1562 1562 1563 1563 1564 1565 1566 1567 1568 1569 1570 1571
1543 1544 1545 1545 1546 1547 1547 1548 1549 1549 1550 1550 1550 1549 1549 1549 1550 1551 1553 1554 1555 1556 1556 1557 1558 1558 1558 1559 1559 1560 1560 1560 1560 1560 1561 1562 1563 1564 1565 1566 1567 1568 1569
1543 1544 1545 1546 1546 1547 1548 1548 1549 1549 1550 1550 1550 1550 1549 1549 1550 1551 1552 1553 1554 1555 1556 1555 1556 1556 1557 1557 1557 1557 1557 1558 1558 1558 1559 1559 1560 1561 1562 1563 1564 1565 1566
1543 1544 1545 1545 1546 1547 1548 1549 1549 1549 1550 1550 1550 1550 1550 1550 1550 1551 1552 1553 1553 1554 1554 1554 1554 1554 1554 1555 1555 1555 1555 1555 1555 1556 1556 1557 1557 1558 1559 1561 1562 1563 1564
1544 1545 1545 1545 1547 1547 1547 1548 1548 1548 1549 1549 1550 1550 1550 1550 1550 1551 1552 1552 1552 1553 1553 1553 1553 1552 1552 1552 1552 1553 1553 1553 1553 1553 1554 1554 1555 1556 1557 1558 1559 1560 1561
1544 1544 1545 1545 1546 1547 1547 1547 1548 1548 1549 1549 1550 1550 1550 1550 1550 1550 1551 1552 1552 1552 1552 1551 1551 1551 1551 1550 1550 1550 1550 1550 1550 1551 1551 1552 1552 1553 1554 1555 1556 1556 1557
1544 1545 1545 1545 1546 1546 1546 1547 1547 1548 1549 1549 1549 1549 1550 1551 1550 1550 1550 1550 1551 1551 1551 1551 1550 1549 1550 1550 1549 1548 1548 1548 1548 1548 1548 1549 1549 1550 1551 1551 1552 1553 1553
1544 1544 1544 1545 1545 1546 1546 1546 1546 1546 1548 1548 1548 1549 1549 1548 1549 1550 1549 1550 1550 1550 1550 1550 1549 1549 1548 1548 1548 1547 1546 1546 1546 1546 1546 1546 1547 1547 1547 1548 1548 1549 1549
1543 1544 1544 1544 1544 1545 1545 1545 1545 1545 1546 1547 1547 1547 1548 1548 1549 1548 1549 1548 1548 1548 1548 1548 1548 1547 1547 1547 1546 1545 1544 1544 1544 1544 1544 1544 1544 1544 1544 1544 1545 1545 1546
1543 1543 1543 1543 1543 1544 1544 1544 1544 1544 1545 1545 1546 1546 1546 1547 1547 1547 1547 1547 1547 1547 1546 1546 1546 1546 1546 1545 1544 1543 1543 1542 1542 1541 1541 1541 1541 1541 1541 1541 1541 1541 1542
1542 1542 1542 1542 1543 1543 1543 1543 1543 1543 1543 1543 1544 1544 1545 1546 1545 1546 1545 1545 1545 1545 1545 1544 1544 1544 1544 1543 1543 1542 1541 1540 1540 1539 1539 1539 1539 1538 1538 1538 1538 1538 1538
1542 1541 1542 1541 1542 1542 1542 1542 1541 1542 1542 1542 1542 1543 1543 1543 1544 1544 1544 1543 1543 1543 1543 1543 1542 1542 1542 1541 1540 1539 1539 1538 1538 1537 1537 1537 1536 1536 1536 1535 1535 1535 1535
1541 1540 1540 1540 1540 1540 1541 1540 1541 1540 1540 1540 1540 1540 1541 1542 1541 1542 1542 1542 1541 1541 1540 1540 1540 1540 1540 1539 1538 1537 1536 1536 1535 1535 1534 1534 1534 1534 1533 1533 1532 1532 1532
1539 1538 1538 1539 1539 1539 1539 1539 1539 1539 1539 1539 1539 1539 1539 1540 1540 1540 1540 1540 1540 1539 1538 1538 1538 1537 1537 1536 1536 1535 1535 1534 1533 1533 1532 1532 1532 1531 1531 1531 1531 1530 1530
1536 1537 1537 1537 1537 1537 1537 1537 1537 1537 1537 1537 1537 1537 1537 1538 1537 1537 1537 1537 1537 1537 1536 1536 1535 1535 1534 1535 1533 1533 1532 1532 1531 1531 1530 1530 1530 1529 1529 1528 1528 1528 1528
1534 1534 1535 1535 1536 1536 1536 1535 1536 1536 1536 1536 1536 1536 1535 1535 1535 1535 1535 1534 1534 1534 1533 1533 1533 1532 1531 1531 1531 1531 1531 1530 1529 1529 1528 1528 1527 1527 1526 1526 1526 1526 1526
1532 1533 1533 1534 1534 1534 1534 1534 1534 1534 1534 1534 1534 1533 1533 1533 1533 1533 1532 1532 1531 1531 1531 1530 1530 1530 1529 1529 1528 1528 1529 1529 1528 1527 1526 1526 1525 1525 1524 1524 1524 1524 1524
1530 1530 1531 1531 1532 1532 1532 1532 1532 1532 1532 1532 1532 1531 1531 1531 1530 1530 1530 1529 1529 1528 1528 1528 1527 1527 1527 1527 1526 1526 1526 1526 1526 1525 1524 1523 1523 1523 1522 1522 1522 1522 1522
1527 1528 1529 1529 1529 1530 1530 1530 1530 1530 1530 1530 1529 1529 1529 1529 1528 1528 1527 1526 1526 1525 1525 1525 1525 1525 1524 1524 1524 1525 1524 1524 1524 1524 1522 1521 1521 1520 1520 1520 1520 1520 1520
1526 1526 1526 1527 1527 1528 1528 1528 1528 1528 1528 1527 1527 1527 1526 1526 1525 1525 1525 1524 1524 1523 1523 1523 1522 1522 1522 1522 1522 1522 1523 1522 1521 1522 1521 1520 1520 1519 1519 1518 1518 1518 1518
1523 1523 1524 1524 1525 1525 1525 1525 1526 1526 1525 1525 1525 1524 1524 1523 1523 1522 1522 1521 1521 1521 1520 1520 1520 1520 1519 1519 1519 1520 1520 1520 1520 1520 1519 1519 1519 1519 1518 1517 1516 1516 1516
1520 1521 1521 1522 1522 1522 1522 1522 1522 1523 1523 1522 1522 1522 1522 1521 1520 1520 1519 1518 1518 1517 1517 1517 1517 1517 1517 1516 1516 1517 1517 1517 1517 1517 1517 1517 1517 1517 1517 1516 1515 1515 1515
1518 1518 1519 1519 1519 1519 1519 1519 1519 1519 1519 1519 1519 1518 1518 1518 1517 1517 1516 1516 1515 1514 1514 1514 1514 1513 1514 1513 1513 1513 1513 1513 1513 1514 1514 1514 1514 1515 1515 1514 1513 1513 1513
1515 1515 1516 1516 1516 1516 1516 1516 1516 1516 1515 1515 1515 1515 1514 1514 1513 1513 1513 1512 1512 1511 1511 1510 1510 1510 1509 1509 1509 1510 1510 1510 1510 1511 1510 1511 1511 1512 1512 1511 1511 1510 1510
1512 1512 1513 1512 1512 1512 1512 1512 1512 1512 1512 1512 1511 1511 1510 1510 1510 1509 1509 1509 1508 1508 1508 1507 1506 1506 1505 1505 1505 1506 1506 1507 1507 1507 1507 1507 1508 1509 1509 1509 1508 1508 1508